EZY83DY EGKK-LIPZ

Flight info

Callsign EZY83DY
Flight time 1h 44m
Altitude 35000
Route ODVIK Y311 DVR UL9 KONAN DCT KOK DCT DENOX DCT REMBA DCT ARCKY DCT LIRSU DCT KRH DCT BATUB M738 TIRUL Y740 NATAG DCT LORLO DCT UNTAD DCT ADOSA/N0341F190 L612 ALBET
Aircraft A21N/M-SDE2E3FGHIJ1RWXYZ/LB1G1

Departure

Time 2026-05-07 03:46
Airport London Gatwick Airport (EGKK)

Arrival

Time 2026-05-07 05:31
Airport Venice Marco Polo Airport (LIPZ)
Time Latitude Longitude Altitude Speed Heading
2026-05-07 02:56 51.15476 -0.17029 210 ft 0 kts 348°
2026-05-07 03:30 51.15466 -0.17026 212 ft 2 kts 337°
2026-05-07 03:31 51.15451 -0.17015 215 ft 2 kts 328°
2026-05-07 03:31 51.15438 -0.16998 212 ft 2 kts 305°
2026-05-07 03:31 51.15432 -0.16973 219 ft 2 kts 275°
2026-05-07 03:31 51.15433 -0.16950 216 ft 1 kts 258°
2026-05-07 03:32 51.15433 -0.16948 216 ft 0 kts 257°
2026-05-07 03:32 51.15433 -0.16947 216 ft 0 kts 257°
2026-05-07 03:33 51.15433 -0.16946 216 ft 0 kts 257°
2026-05-07 03:34 51.15433 -0.16945 216 ft 0 kts 257°
2026-05-07 03:35 51.15432 -0.16951 216 ft 0 kts 257°
2026-05-07 03:35 51.15430 -0.16966 212 ft 3 kts 257°
2026-05-07 03:36 51.15423 -0.17012 214 ft 6 kts 257°
2026-05-07 03:36 51.15413 -0.17088 214 ft 8 kts 257°
2026-05-07 03:36 51.15391 -0.17185 212 ft 10 kts 263°
2026-05-07 03:36 51.15368 -0.17301 213 ft 12 kts 250°
2026-05-07 03:37 51.15311 -0.17398 210 ft 13 kts 234°
2026-05-07 03:37 51.15289 -0.17536 213 ft 15 kts 244°
2026-05-07 03:37 51.15263 -0.17700 210 ft 16 kts 257°
2026-05-07 03:37 51.15239 -0.17877 213 ft 17 kts 258°
2026-05-07 03:38 51.15213 -0.18067 212 ft 18 kts 258°
2026-05-07 03:38 51.15186 -0.18270 218 ft 19 kts 258°
2026-05-07 03:38 51.15163 -0.18484 212 ft 20 kts 260°
2026-05-07 03:38 51.15135 -0.18708 210 ft 21 kts 258°
2026-05-07 03:39 51.15103 -0.18940 212 ft 22 kts 258°
2026-05-07 03:39 51.15068 -0.19184 210 ft 23 kts 259°
2026-05-07 03:39 51.15036 -0.19439 216 ft 24 kts 258°
2026-05-07 03:39 51.14998 -0.19704 215 ft 25 kts 255°
2026-05-07 03:40 51.14955 -0.19978 214 ft 26 kts 256°
2026-05-07 03:40 51.14913 -0.20264 218 ft 27 kts 258°
2026-05-07 03:40 51.14878 -0.20560 214 ft 20 kts 258°
2026-05-07 03:40 51.14849 -0.20780 210 ft 21 kts 258°
2026-05-07 03:41 51.14819 -0.21010 210 ft 22 kts 258°
2026-05-07 03:41 51.14792 -0.21190 214 ft 10 kts 252°
2026-05-07 03:41 51.14769 -0.21305 215 ft 12 kts 252°
2026-05-07 03:41 51.14719 -0.21399 210 ft 13 kts 174°
2026-05-07 03:42 51.14632 -0.21339 211 ft 15 kts 162°
2026-05-07 03:42 51.14614 -0.21330 213 ft 0 kts 163°
2026-05-07 03:43 51.14600 -0.21324 211 ft 4 kts 163°
2026-05-07 03:44 51.14561 -0.21297 211 ft 8 kts 148°
2026-05-07 03:44 51.14521 -0.21212 211 ft 12 kts 103°
2026-05-07 03:44 51.14535 -0.21074 212 ft 8 kts 75°
2026-05-07 03:44 51.14535 -0.21072 212 ft 0 kts 76°
2026-05-07 03:45 51.14543 -0.21015 217 ft 15 kts 77°
2026-05-07 03:45 51.14611 -0.20539 216 ft 79 kts 77°
2026-05-07 03:46 51.14774 -0.19351 216 ft 139 kts 77°
2026-05-07 03:46 51.15015 -0.17638 418 ft 164 kts 77°
2026-05-07 03:46 51.15241 -0.15898 1125 ft 159 kts 78°
2026-05-07 03:46 51.15444 -0.14171 1764 ft 160 kts 80°
2026-05-07 03:47 51.15624 -0.12414 2388 ft 162 kts 82°
2026-05-07 03:47 51.15844 -0.10629 3007 ft 166 kts 75°
2026-05-07 03:47 51.16144 -0.08816 3581 ft 175 kts 76°
2026-05-07 03:47 51.16462 -0.06815 3994 ft 196 kts 76°
2026-05-07 03:48 51.16786 -0.04587 4444 ft 217 kts 79°
2026-05-07 03:48 51.16875 -0.02102 4952 ft 234 kts 91°
2026-05-07 03:48 51.16824 0.00556 5545 ft 246 kts 92°
2026-05-07 03:48 51.16769 0.03343 6216 ft 256 kts 92°
2026-05-07 03:49 51.16713 0.06234 6861 ft 266 kts 92°
2026-05-07 03:49 51.16654 0.09240 7513 ft 275 kts 92°
2026-05-07 03:49 51.16615 0.11267 8025 ft 279 kts 92°
2026-05-07 03:49 51.16557 0.14373 8848 ft 282 kts 91°
2026-05-07 03:50 51.16519 0.17525 9584 ft 287 kts 89°
2026-05-07 03:50 51.16535 0.20722 10338 ft 291 kts 89°
2026-05-07 03:50 51.16552 0.23959 11090 ft 294 kts 89°
2026-05-07 03:50 51.16564 0.27241 11839 ft 298 kts 89°
2026-05-07 03:51 51.16572 0.30556 12596 ft 302 kts 89°
2026-05-07 03:51 51.16580 0.33919 13357 ft 305 kts 89°
2026-05-07 03:51 51.16583 0.37321 14071 ft 309 kts 90°
2026-05-07 03:51 51.16583 0.40764 14744 ft 312 kts 90°
2026-05-07 03:52 51.16579 0.44243 15422 ft 316 kts 90°
2026-05-07 03:52 51.16572 0.47759 16107 ft 319 kts 90°
2026-05-07 03:52 51.16580 0.51322 16649 ft 328 kts 89°
2026-05-07 03:52 51.16580 0.55045 16959 ft 344 kts 90°
2026-05-07 03:53 51.16578 0.57996 17166 ft 356 kts 90°
2026-05-07 03:54 51.16576 0.59718 17292 ft 363 kts 90°
2026-05-07 03:54 51.16573 0.63780 17818 ft 370 kts 90°
2026-05-07 03:55 51.16572 0.67891 18441 ft 373 kts 90°
2026-05-07 03:55 51.16569 0.72036 19012 ft 376 kts 90°
2026-05-07 03:55 51.16557 0.76229 19579 ft 380 kts 90°
2026-05-07 03:55 51.16544 0.80453 20192 ft 383 kts 90°
2026-05-07 03:56 51.16530 0.84711 20724 ft 386 kts 90°
2026-05-07 03:56 51.16515 0.89015 21252 ft 390 kts 90°
2026-05-07 03:56 51.16499 0.93338 21776 ft 393 kts 90°
2026-05-07 03:56 51.16479 0.97710 22289 ft 396 kts 90°
2026-05-07 03:57 51.16459 1.02124 22805 ft 400 kts 90°
2026-05-07 03:57 51.16436 1.06558 23308 ft 403 kts 90°
2026-05-07 03:57 51.16411 1.11064 23778 ft 406 kts 90°
2026-05-07 03:57 51.16386 1.15575 24205 ft 409 kts 90°
2026-05-07 03:58 51.16358 1.20125 24636 ft 412 kts 90°
2026-05-07 03:58 51.16329 1.24703 25056 ft 414 kts 90°
2026-05-07 03:58 51.16298 1.29248 25464 ft 417 kts 90°
2026-05-07 03:58 51.16263 1.33878 25872 ft 420 kts 91°
2026-05-07 03:59 51.16123 1.38537 26269 ft 422 kts 94°
2026-05-07 03:59 51.15894 1.43269 26665 ft 425 kts 95°
2026-05-07 03:59 51.15663 1.47916 27038 ft 427 kts 95°
2026-05-07 03:59 51.15433 1.52634 27403 ft 430 kts 94°
2026-05-07 04:00 51.15207 1.57399 27761 ft 432 kts 94°
2026-05-07 04:00 51.14966 1.62186 28111 ft 434 kts 95°
2026-05-07 04:00 51.14723 1.66986 28459 ft 437 kts 95°
2026-05-07 04:00 51.14481 1.71822 28798 ft 439 kts 95°
2026-05-07 04:01 51.14240 1.76683 29145 ft 441 kts 95°
2026-05-07 04:01 51.13995 1.81565 29473 ft 443 kts 95°
2026-05-07 04:01 51.13741 1.86464 29809 ft 445 kts 95°
2026-05-07 04:01 51.13487 1.91394 30128 ft 447 kts 95°
2026-05-07 04:02 51.13229 1.96337 30397 ft 449 kts 95°
2026-05-07 04:02 51.12966 2.01301 30669 ft 451 kts 95°
2026-05-07 04:02 51.12698 2.06285 30942 ft 453 kts 95°
2026-05-07 04:02 51.12432 2.11283 31196 ft 454 kts 95°
2026-05-07 04:03 51.12168 2.16299 31434 ft 456 kts 95°
2026-05-07 04:03 51.11897 2.21344 31684 ft 458 kts 95°
2026-05-07 04:03 51.11633 2.26390 32015 ft 457 kts 95°
2026-05-07 04:03 51.11363 2.31423 32348 ft 457 kts 95°
2026-05-07 04:04 51.11092 2.36453 32671 ft 456 kts 95°
2026-05-07 04:04 51.10810 2.41480 32968 ft 455 kts 95°
2026-05-07 04:04 51.10512 2.46497 33276 ft 455 kts 95°
2026-05-07 04:04 51.10227 2.51492 33564 ft 454 kts 95°
2026-05-07 04:05 51.09949 2.56504 33845 ft 454 kts 95°
2026-05-07 04:05 51.09665 2.61497 34088 ft 454 kts 95°
2026-05-07 04:05 51.09261 2.66404 34277 ft 454 kts 101°
2026-05-07 04:05 51.08548 2.71363 34492 ft 453 kts 103°
2026-05-07 04:06 51.07818 2.76177 34682 ft 453 kts 103°
2026-05-07 04:06 51.07069 2.81101 34868 ft 453 kts 104°
2026-05-07 04:06 51.06336 2.85913 35027 ft 454 kts 104°
2026-05-07 04:07 51.04853 2.95644 35041 ft 452 kts 104°
2026-05-07 04:07 51.03358 3.05361 35017 ft 452 kts 104°
2026-05-07 04:08 51.01869 3.15059 35014 ft 452 kts 104°
2026-05-07 04:08 51.00360 3.24744 35007 ft 452 kts 104°
2026-05-07 04:09 50.98849 3.34415 35005 ft 451 kts 104°
2026-05-07 04:09 50.97338 3.44064 35006 ft 450 kts 104°
2026-05-07 04:10 50.95815 3.53702 35009 ft 450 kts 104°
2026-05-07 04:10 50.94288 3.63317 35010 ft 450 kts 104°
2026-05-07 04:11 50.92747 3.72920 35013 ft 449 kts 104°
2026-05-07 04:11 50.91209 3.82524 35007 ft 449 kts 104°
2026-05-07 04:12 50.89669 3.92108 35008 ft 449 kts 104°
2026-05-07 04:12 50.88096 4.01662 35005 ft 448 kts 106°
2026-05-07 04:13 50.85970 4.10934 35015 ft 448 kts 111°
2026-05-07 04:13 50.83710 4.20124 35014 ft 448 kts 111°
2026-05-07 04:14 50.81476 4.29312 35019 ft 447 kts 111°
2026-05-07 04:14 50.79242 4.38494 35021 ft 447 kts 111°
2026-05-07 04:15 50.76999 4.47652 35019 ft 447 kts 111°
2026-05-07 04:15 50.74766 4.56809 35014 ft 447 kts 111°
2026-05-07 04:16 50.72539 4.65922 35010 ft 448 kts 111°
2026-05-07 04:16 50.70265 4.75122 35007 ft 447 kts 111°
2026-05-07 04:17 50.68010 4.84182 35002 ft 446 kts 111°
2026-05-07 04:17 50.65671 4.93245 34995 ft 446 kts 115°
2026-05-07 04:18 50.63082 5.02132 34996 ft 446 kts 115°
2026-05-07 04:18 50.60494 5.10985 34995 ft 445 kts 115°
2026-05-07 04:19 50.57905 5.19812 34994 ft 445 kts 115°
2026-05-07 04:19 50.55309 5.28638 34994 ft 444 kts 115°
2026-05-07 04:20 50.52700 5.37442 34992 ft 444 kts 115°
2026-05-07 04:20 50.50095 5.46240 34996 ft 444 kts 115°
2026-05-07 04:21 50.46172 5.59400 34992 ft 444 kts 116°
2026-05-07 04:21 50.43549 5.68161 34990 ft 444 kts 116°
2026-05-07 04:22 50.40919 5.76918 34987 ft 444 kts 116°
2026-05-07 04:22 50.38290 5.85610 34981 ft 444 kts 116°
2026-05-07 04:23 50.35648 5.94343 34977 ft 444 kts 116°
2026-05-07 04:23 50.32994 6.03052 34975 ft 443 kts 116°
2026-05-07 04:24 50.30343 6.11756 34966 ft 444 kts 116°
2026-05-07 04:24 50.27456 6.20293 34965 ft 443 kts 120°
2026-05-07 04:25 50.24487 6.28736 34961 ft 443 kts 120°
2026-05-07 04:25 50.21525 6.37172 34951 ft 443 kts 120°
2026-05-07 04:26 50.18471 6.45528 34939 ft 443 kts 126°
2026-05-07 04:26 50.14586 6.52966 34944 ft 442 kts 131°
2026-05-07 04:27 50.10599 6.60275 34939 ft 442 kts 131°
2026-05-07 04:27 50.06625 6.67579 34940 ft 442 kts 131°
2026-05-07 04:28 50.02652 6.74892 34937 ft 442 kts 131°
2026-05-07 04:28 49.98685 6.82206 34938 ft 442 kts 131°
2026-05-07 04:29 49.94704 6.89496 34938 ft 442 kts 131°
2026-05-07 04:29 49.90727 6.96773 34936 ft 442 kts 131°
2026-05-07 04:30 49.86739 7.04036 34933 ft 442 kts 132°
2026-05-07 04:30 49.82743 7.11280 34929 ft 442 kts 132°
2026-05-07 04:31 49.78745 7.18523 34934 ft 443 kts 132°
2026-05-07 04:31 49.74731 7.25769 34942 ft 443 kts 132°
2026-05-07 04:32 49.70720 7.32988 34940 ft 443 kts 132°
2026-05-07 04:32 49.66699 7.40218 34932 ft 444 kts 132°
2026-05-07 04:33 49.62664 7.47439 34936 ft 445 kts 133°
2026-05-07 04:33 49.58622 7.54654 34932 ft 445 kts 133°
2026-05-07 04:34 49.54589 7.61834 34929 ft 445 kts 133°
2026-05-07 04:34 49.51198 7.67869 34925 ft 445 kts 133°
2026-05-07 04:35 49.46484 7.76226 34925 ft 445 kts 133°
2026-05-07 04:35 49.42426 7.83399 34928 ft 445 kts 133°
2026-05-07 04:36 49.38367 7.90552 34936 ft 444 kts 133°
2026-05-07 04:36 49.34302 7.97694 34936 ft 444 kts 133°
2026-05-07 04:37 49.30889 8.03672 34944 ft 444 kts 133°
2026-05-07 04:37 49.26815 8.10792 34948 ft 444 kts 134°
2026-05-07 04:38 49.22732 8.17905 34947 ft 445 kts 134°
2026-05-07 04:38 49.18666 8.24973 34947 ft 445 kts 134°
2026-05-07 04:39 49.14574 8.32075 34948 ft 445 kts 134°
2026-05-07 04:39 49.10481 8.39161 34952 ft 445 kts 134°
2026-05-07 04:40 49.06368 8.46242 34953 ft 446 kts 135°
2026-05-07 04:40 49.02252 8.53320 34950 ft 446 kts 135°
2026-05-07 04:41 48.97862 8.59924 34946 ft 441 kts 147°
2026-05-07 04:41 48.92795 8.65152 34954 ft 439 kts 150°
2026-05-07 04:42 48.87725 8.70292 34950 ft 438 kts 149°
2026-05-07 04:42 48.82663 8.75468 34946 ft 438 kts 150°
2026-05-07 04:43 48.77613 8.80623 34939 ft 437 kts 150°
2026-05-07 04:43 48.72574 8.85749 34951 ft 436 kts 150°
2026-05-07 04:44 48.67564 8.90833 34943 ft 434 kts 150°
2026-05-07 04:44 48.62545 8.95909 34928 ft 433 kts 150°
2026-05-07 04:45 48.57536 9.00976 34936 ft 433 kts 150°
2026-05-07 04:45 48.52534 9.06022 34937 ft 433 kts 150°
2026-05-07 04:46 48.47519 9.11060 34939 ft 433 kts 150°
2026-05-07 04:46 48.42510 9.16087 34938 ft 432 kts 150°
2026-05-07 04:47 48.37500 9.21100 34945 ft 432 kts 150°
2026-05-07 04:47 48.32489 9.26101 34946 ft 432 kts 151°
2026-05-07 04:48 48.27514 9.31052 34949 ft 432 kts 151°
2026-05-07 04:48 48.22502 9.36040 34954 ft 432 kts 151°
2026-05-07 04:49 48.17491 9.41006 34953 ft 432 kts 151°
2026-05-07 04:49 48.12449 9.45995 34952 ft 432 kts 151°
2026-05-07 04:50 48.07471 9.50902 34951 ft 432 kts 151°
2026-05-07 04:50 48.02457 9.55843 34952 ft 432 kts 150°
2026-05-07 04:51 47.97559 9.61072 34965 ft 433 kts 149°
2026-05-07 04:51 47.92683 9.66345 34970 ft 432 kts 149°
2026-05-07 04:52 47.87804 9.71589 34974 ft 432 kts 149°
2026-05-07 04:52 47.82932 9.76828 34973 ft 432 kts 149°
2026-05-07 04:53 47.78057 9.82070 34975 ft 432 kts 149°
2026-05-07 04:53 47.73181 9.87293 34975 ft 432 kts 150°
2026-05-07 04:54 47.68296 9.92505 34967 ft 432 kts 150°
2026-05-07 04:54 47.63412 9.97708 34965 ft 432 kts 150°
2026-05-07 04:55 47.58531 10.02900 34967 ft 432 kts 150°
2026-05-07 04:55 47.53647 10.08079 34958 ft 432 kts 150°
2026-05-07 04:56 47.48752 10.13266 34950 ft 433 kts 151°
2026-05-07 04:56 47.44050 10.18220 34981 ft 432 kts 153°
2026-05-07 04:57 47.38977 10.22910 34968 ft 431 kts 155°
2026-05-07 04:57 47.33881 10.27541 34974 ft 430 kts 155°
2026-05-07 04:58 47.28772 10.32160 34975 ft 431 kts 155°
2026-05-07 04:58 47.23670 10.36750 34968 ft 431 kts 156°
2026-05-07 04:59 47.18560 10.41339 34980 ft 430 kts 156°
2026-05-07 04:59 47.13506 10.45872 34976 ft 428 kts 156°
2026-05-07 05:00 47.08412 10.50436 34945 ft 431 kts 156°
2026-05-07 05:00 47.03106 10.54122 34952 ft 411 kts 169°
2026-05-07 05:01 46.97726 10.56533 34691 ft 398 kts 171°
2026-05-07 05:01 46.95082 10.57704 34435 ft 395 kts 171°
2026-05-07 05:01 46.92464 10.58875 34188 ft 391 kts 171°
2026-05-07 05:02 46.89875 10.60037 33936 ft 388 kts 171°
2026-05-07 05:02 46.87302 10.61193 33653 ft 386 kts 171°
2026-05-07 05:02 46.84768 10.62505 33057 ft 393 kts 162°
2026-05-07 05:02 46.82360 10.64556 32166 ft 405 kts 156°
2026-05-07 05:03 46.80019 10.66846 31613 ft 403 kts 155°
2026-05-07 05:03 46.77708 10.69116 31136 ft 397 kts 155°
2026-05-07 05:03 46.75431 10.71312 30745 ft 390 kts 156°
2026-05-07 05:03 46.73174 10.73455 30316 ft 384 kts 156°
2026-05-07 05:04 46.70946 10.75558 29881 ft 380 kts 156°
2026-05-07 05:04 46.68737 10.77636 29381 ft 376 kts 156°
2026-05-07 05:04 46.66555 10.79683 28922 ft 371 kts 156°
2026-05-07 05:04 46.64396 10.81709 28460 ft 367 kts 156°
2026-05-07 05:05 46.62265 10.83715 28021 ft 362 kts 156°
2026-05-07 05:05 46.60166 10.85690 27609 ft 358 kts 156°
2026-05-07 05:05 46.58073 10.87650 27231 ft 356 kts 156°
2026-05-07 05:05 46.56004 10.89589 26846 ft 352 kts 156°
2026-05-07 05:06 46.53953 10.91503 26425 ft 349 kts 155°
2026-05-07 05:06 46.51938 10.93377 26036 ft 346 kts 155°
2026-05-07 05:06 46.49917 10.95261 25631 ft 344 kts 155°
2026-05-07 05:06 46.47918 10.97126 25250 ft 340 kts 155°
2026-05-07 05:07 46.45933 10.98978 24876 ft 338 kts 155°
2026-05-07 05:07 46.43958 11.00817 24490 ft 337 kts 155°
2026-05-07 05:07 46.41985 11.02651 24099 ft 336 kts 155°
2026-05-07 05:07 46.40027 11.04471 23709 ft 335 kts 154°
2026-05-07 05:08 46.38069 11.06290 23264 ft 334 kts 154°
2026-05-07 05:08 46.36118 11.08099 22812 ft 332 kts 154°
2026-05-07 05:08 46.34183 11.09893 22435 ft 329 kts 154°
2026-05-07 05:08 46.32262 11.11672 22034 ft 327 kts 154°
2026-05-07 05:09 46.30350 11.13439 21636 ft 325 kts 154°
2026-05-07 05:09 46.28453 11.15192 21238 ft 323 kts 154°
2026-05-07 05:09 46.26560 11.16939 20857 ft 322 kts 154°
2026-05-07 05:09 46.24676 11.18678 20481 ft 321 kts 154°
2026-05-07 05:10 46.22806 11.20402 20120 ft 319 kts 154°
2026-05-07 05:10 46.20942 11.22119 19750 ft 316 kts 154°
2026-05-07 05:10 46.19088 11.23824 19384 ft 314 kts 154°
2026-05-07 05:10 46.17252 11.25512 19031 ft 313 kts 154°
2026-05-07 05:11 46.15420 11.27194 18700 ft 312 kts 154°
2026-05-07 05:11 46.13590 11.28873 18361 ft 311 kts 154°
2026-05-07 05:11 46.11769 11.30546 17987 ft 310 kts 154°
2026-05-07 05:11 46.09951 11.32211 17617 ft 309 kts 154°
2026-05-07 05:12 46.08142 11.33867 17250 ft 308 kts 154°
2026-05-07 05:12 46.06335 11.35518 16929 ft 307 kts 153°
2026-05-07 05:12 46.04533 11.37166 16597 ft 306 kts 153°
2026-05-07 05:12 46.02734 11.38811 16276 ft 305 kts 153°
2026-05-07 05:13 46.00946 11.40445 15950 ft 304 kts 153°
2026-05-07 05:13 45.99159 11.42077 15628 ft 303 kts 153°
2026-05-07 05:13 45.97380 11.43697 15317 ft 302 kts 153°
2026-05-07 05:13 45.95627 11.45293 14996 ft 303 kts 152°
2026-05-07 05:14 45.93844 11.46917 14677 ft 303 kts 153°
2026-05-07 05:14 45.92058 11.48540 14361 ft 304 kts 152°
2026-05-07 05:14 45.90273 11.50160 14034 ft 304 kts 152°
2026-05-07 05:14 45.88487 11.51780 13712 ft 304 kts 152°
2026-05-07 05:15 45.86694 11.53408 13352 ft 304 kts 152°
2026-05-07 05:15 45.84906 11.55031 13008 ft 304 kts 152°
2026-05-07 05:15 45.83124 11.56645 12685 ft 303 kts 152°
2026-05-07 05:15 45.81346 11.58255 12389 ft 302 kts 151°
2026-05-07 05:16 45.79601 11.59835 12079 ft 301 kts 151°
2026-05-07 05:16 45.77799 11.61464 11757 ft 301 kts 151°
2026-05-07 05:16 45.76034 11.63058 11432 ft 300 kts 151°
2026-05-07 05:16 45.74269 11.64652 11119 ft 298 kts 151°
2026-05-07 05:17 45.72520 11.66229 10814 ft 298 kts 151°
2026-05-07 05:17 45.70767 11.67807 10504 ft 297 kts 150°
2026-05-07 05:17 45.69000 11.69398 10206 ft 296 kts 150°
2026-05-07 05:17 45.67301 11.70930 9981 ft 288 kts 150°
2026-05-07 05:18 45.65629 11.72435 9728 ft 281 kts 150°
2026-05-07 05:18 45.63979 11.73916 9359 ft 279 kts 150°
2026-05-07 05:18 45.62332 11.75394 9017 ft 280 kts 150°
2026-05-07 05:18 45.60684 11.76871 8678 ft 280 kts 150°
2026-05-07 05:19 45.59034 11.78350 8368 ft 280 kts 150°
2026-05-07 05:19 45.57388 11.79821 8071 ft 279 kts 150°
2026-05-07 05:19 45.55746 11.81292 7787 ft 278 kts 149°
2026-05-07 05:19 45.54115 11.82754 7487 ft 277 kts 149°
2026-05-07 05:20 45.52485 11.84208 7196 ft 276 kts 149°
2026-05-07 05:20 45.50860 11.85658 6885 ft 274 kts 149°
2026-05-07 05:20 45.49257 11.87091 6567 ft 271 kts 149°
2026-05-07 05:20 45.47669 11.88510 6267 ft 269 kts 149°
2026-05-07 05:21 45.46085 11.89925 5976 ft 268 kts 149°
2026-05-07 05:21 45.42940 11.92729 5413 ft 265 kts 149°
2026-05-07 05:21 45.41380 11.94116 5131 ft 264 kts 149°
2026-05-07 05:22 45.39825 11.95498 4839 ft 264 kts 149°
2026-05-07 05:22 45.38794 11.96415 4629 ft 264 kts 149°
2026-05-07 05:22 45.37240 11.97797 4308 ft 264 kts 149°
2026-05-07 05:22 45.35696 11.99166 4082 ft 257 kts 149°
2026-05-07 05:23 45.34211 12.00477 3968 ft 245 kts 149°
2026-05-07 05:23 45.32799 12.01724 3954 ft 234 kts 149°
2026-05-07 05:23 45.31423 12.02941 3976 ft 233 kts 149°
2026-05-07 05:23 45.30129 12.04322 3976 ft 234 kts 131°
2026-05-07 05:24 45.29472 12.06400 3979 ft 232 kts 95°
2026-05-07 05:24 45.29743 12.08549 3865 ft 220 kts 62°
2026-05-07 05:24 45.30677 12.10244 3653 ft 218 kts 45°
2026-05-07 05:24 45.31814 12.11660 3460 ft 217 kts 39°
2026-05-07 05:25 45.32955 12.12969 3327 ft 202 kts 39°
2026-05-07 05:25 45.33999 12.14192 3236 ft 187 kts 40°
2026-05-07 05:25 45.34948 12.15341 3140 ft 171 kts 40°
2026-05-07 05:25 45.35802 12.16341 2982 ft 148 kts 41°
2026-05-07 05:26 45.36566 12.17300 2964 ft 146 kts 42°
2026-05-07 05:26 45.37323 12.18263 2977 ft 146 kts 42°
2026-05-07 05:26 45.38079 12.19230 2951 ft 146 kts 42°
2026-05-07 05:26 45.38832 12.20194 2821 ft 145 kts 42°
2026-05-07 05:27 45.39580 12.21152 2646 ft 144 kts 42°
2026-05-07 05:27 45.40318 12.22098 2456 ft 142 kts 42°
2026-05-07 05:27 45.41048 12.23034 2267 ft 140 kts 42°
2026-05-07 05:27 45.41772 12.23961 2077 ft 139 kts 42°
2026-05-07 05:28 45.42487 12.24879 1889 ft 138 kts 43°
2026-05-07 05:28 45.43200 12.25794 1699 ft 137 kts 43°
2026-05-07 05:28 45.43907 12.26702 1506 ft 137 kts 43°
2026-05-07 05:28 45.44611 12.27606 1325 ft 136 kts 44°
2026-05-07 05:29 45.45317 12.28511 1145 ft 136 kts 43°
2026-05-07 05:29 45.46014 12.29407 962 ft 135 kts 42°
2026-05-07 05:29 45.46713 12.30305 777 ft 135 kts 41°
2026-05-07 05:29 45.47413 12.31204 596 ft 136 kts 41°
2026-05-07 05:30 45.48109 12.32098 411 ft 136 kts 41°
2026-05-07 05:30 45.48806 12.32993 244 ft 134 kts 41°
2026-05-07 05:30 45.49500 12.33884 67 ft 135 kts 41°
2026-05-07 05:30 45.50164 12.34750 22 ft 123 kts 38°
2026-05-07 05:31 45.50669 12.35382 22 ft 64 kts 42°
2026-05-07 05:31 45.50865 12.35634 25 ft 25 kts 42°
2026-05-07 05:31 45.50996 12.35800 20 ft 26 kts 41°
2026-05-07 05:31 45.51132 12.35970 17 ft 27 kts 42°
2026-05-07 05:32 45.51240 12.36044 19 ft 11 kts 340°
2026-05-07 05:32 45.51305 12.35969 19 ft 13 kts 320°
2026-05-07 05:32 45.51337 12.35920 20 ft 0 kts 267°
2026-05-07 05:32 45.51337 12.35907 20 ft 3 kts 268°
2026-05-07 05:33 45.51334 12.35871 20 ft 5 kts 242°
2026-05-07 05:33 45.51305 12.35838 19 ft 6 kts 215°
2026-05-07 05:33 45.51268 12.35800 18 ft 7 kts 216°
2026-05-07 05:33 45.51222 12.35745 19 ft 10 kts 222°
2026-05-07 05:34 45.51160 12.35666 20 ft 13 kts 222°
2026-05-07 05:34 45.51088 12.35572 20 ft 15 kts 222°
2026-05-07 05:34 45.51068 12.35546 20 ft 0 kts 221°
2026-05-07 05:34 45.51068 12.35547 20 ft 0 kts 221°
2026-05-07 05:36 45.51066 12.35545 20 ft 1 kts 221°
2026-05-07 05:36 45.51046 12.35520 22 ft 6 kts 221°
2026-05-07 05:36 45.51007 12.35452 23 ft 11 kts 236°
2026-05-07 05:37 45.50976 12.35337 24 ft 14 kts 272°
2026-05-07 05:37 45.50972 12.35288 24 ft 4 kts 260°
2026-05-07 05:37 45.50963 12.35246 26 ft 5 kts 248°
2026-05-07 05:37 45.50941 12.35191 24 ft 7 kts 218°
2026-05-07 05:38 45.50939 12.35188 24 ft 0 kts 217°
2026-05-07 05:38 45.49654 12.34084 44 ft 134 kts 41°
2026-05-07 05:38 45.51337 12.35920 20 ft 0 kts 268°
2026-05-07 05:38 45.51336 12.35921 14 ft 1 kts 268°